ODIN

Satellite information

Favourite Embed

Satellite Type and Status

PAYLOADIN ORBIT

Key statistics

Satellite ODIN at a glance.

Uptime

9065

Days in orbit

Revolutions

≈ 15.5

Per day

Orbit

SSO

Sun Synchronous Orbit

Inclination

97.4

Latest

Satellite identification and parameters

Extended collection of information and parameters for ODIN.

Object identification

Identified? True

Debris? False

Object name: ODIN

International designator: 2001-007A

Object number (NORAD): 26702

Object ID (CCSDS): 26702

Country: SWEDEN (SWED)

Current information (Y/N): Y

RCS size: LARGE

Orbital parameters

Period: 92.819 minutes

Inclination: 97.4226 deg

SMA: 6790.741 km

Apoapsis: 416.1 km

Periapsis: 409.112 km

RAAN: 16.0291 deg

Eccentricy: 0.0005145

Argument of periapsis: 104.4115 deg

Mean anomaly: 255.7708 deg

Mean motion: 15.51411546 rev/day

Mean motion (dot): 0.0003445 rev/day2

B* drag term: 0.00058447706 1/REarth

Two-line elements (TLE)

Creation date: Dec. 14, 2025, 6:24 p.m.

Reference frame: TEME

Reference center: EARTH

Epoch: Dec. 14, 2025, 1:30 a.m. UTC

TLE line 0: 0 ODIN

TLE line 1: 1 26702U 01007A 25348.06266546 .00034450 00000-0 58448-3 0 9990

TLE line 2: 2 26702 97.4226 16.0291 0005145 104.4115 255.7708 15.51411546360533

Live tracking on map

Real-time ground track for satellite ODIN.

In-orbit conjunctions

There are no conjunctions computed for ODIN, at the moment. Check back to stay up to date, as we update our databases every day.

Go to all conjunctions

Associated space launch

Odin is a Swedish satellite working in two disciplines: astrophysics and aeronomy, and it was named after Odin of Norse mythology.

ODIN was lifted into orbit during the mission ‘Start-1 | Odin’, on board a Start-1 space rocket.

The launch took place on Feb. 20, 2001, 8:48 a.m. from 5.

For more information about the launch, click the button.

Launch to space Start-1 | Odin
Start-1 | Odin

Agency: N/A

Status: Launch Successful

Launch date: Feb. 20, 2001, 8:48 a.m. UTC

Rocket: Start-1

Launch pad: 5

Location: Svobodny Cosmodrome, Russian Federation

...

Latest news about this satellite

There are no fresh news available about this satellite. Check back as we update our databases every day.


Newsletter sign-up

Weekly statistics, charts and insights to help you stay on top of the space industry.